• în Republica Moldova
  • Lista ţărilor
  • Pe 7 zile
  • Temperatura apei
  • Hartă satelitară
  • Meteo pe hartă
  • Widget-uri
  • user-avatar
    Intrare

    Meteo pe oră la Graz

    Astăzi, 22 Octombrie, Luni

    Timp Temperatura Precipitaţii Vânt Presiune Umiditate
    00:00 +6°C° 0 mm 1 m/s 730 mmHg 86%
    01:00 +6°C° 0 mm 1 m/s 730 mmHg 86%
    02:00 +6°C° 0 mm 1 m/s 730 mmHg 85%
    03:00 +6°C° 0 mm 1 m/s 730 mmHg 83%
    04:00 +7°C° 0 mm 1 m/s 730 mmHg 82%
    05:00 +7°C° 0 mm 1 m/s 730 mmHg 82%
    06:00 +7°C° 0 mm 1 m/s 730 mmHg 82%
    07:00 +7°C° 0 mm 1 m/s 730 mmHg 82%
    08:00 +9°C° 0 mm 1 m/s 730 mmHg 75%
    09:00 +11°C° 0 mm 1 m/s 730 mmHg 68%
    10:00 +14°C° 0 mm 1 m/s 730 mmHg 61%
    11:00 +14°C° 0 mm 1 m/s 730 mmHg 59%
    12:00 +15°C° 0 mm 1 m/s 730 mmHg 57%
    13:00 +16°C° 0 mm 1 m/s 729 mmHg 55%
    14:00 +15°C° 0 mm 1 m/s 729 mmHg 59%
    15:00 +15°C° 0 mm 1 m/s 729 mmHg 64%
    16:00 +14°C° 0 mm 1 m/s 729 mmHg 68%
    17:00 +12°C° 0 mm 1 m/s 729 mmHg 74%
    18:00 +11°C° 0 mm 1 m/s 729 mmHg 81%
    19:00 +9°C° 0 mm 1 m/s 730 mmHg 87%
    20:00 +9°C° 0 mm 1 m/s 730 mmHg 88%
    21:00 +8°C° 0 mm 1 m/s 730 mmHg 89%
    22:00 +8°C° 0 mm 1 m/s 731 mmHg 90%
    23:00 +8°C° 0 mm 1 m/s 731 mmHg 90%

    Mâine, 23 Octombrie, Marţi

    Timp Temperatura Precipitaţii Vânt Presiune Umiditate
    00:00 +6°C° 0 mm 2 m/s 731 mmHg 91%
    01:00 +6°C° 0 mm 2 m/s 731 mmHg 91%
    02:00 +7°C° 0 mm 2 m/s 730 mmHg 89%
    03:00 +7°C° 0 mm 2 m/s 730 mmHg 87%
    04:00 +7°C° 0 mm 2 m/s 730 mmHg 86%
    05:00 +8°C° 0 mm 1 m/s 730 mmHg 87%
    06:00 +7°C° 0 mm 1 m/s 730 mmHg 88%
    07:00 +7°C° 0 mm 1 m/s 730 mmHg 89%
    08:00 +9°C° 0 mm 1 m/s 730 mmHg 80%
    09:00 +12°C° 0 mm 1 m/s 730 mmHg 71%
    10:00 +14°C° 0 mm 1 m/s 730 mmHg 63%
    11:00 +15°C° 0 mm 1 m/s 730 mmHg 59%
    12:00 +16°C° 0 mm 1 m/s 729 mmHg 56%
    13:00 +16°C° 0 mm 1 m/s 728 mmHg 52%
    14:00 +16°C° 0 mm 1 m/s 728 mmHg 56%
    15:00 +15°C° 0 mm 1 m/s 727 mmHg 59%
    16:00 +14°C° 0 mm 1 m/s 727 mmHg 63%
    17:00 +13°C° 0 mm 1 m/s 726 mmHg 68%
    18:00 +12°C° 0 mm 1 m/s 726 mmHg 72%
    19:00 +10°C° 0 mm 2 m/s 726 mmHg 77%
    20:00 +9°C° 0 mm 2 m/s 726 mmHg 77%
    21:00 +9°C° 0 mm 2 m/s 726 mmHg 77%
    22:00 +9°C° 0 mm 2 m/s 726 mmHg 77%
    23:00 +9°C° 0 mm 2 m/s 726 mmHg 77%

    Poimâine, 24 Octombrie, Miercuri

    Timp Temperatura Precipitaţii Vânt Presiune Umiditate
    00:00 +9°C° 0 mm 2 m/s 725 mmHg 78%
    01:00 +8°C° 0 mm 2 m/s 725 mmHg 78%
    02:00 +8°C° 0 mm 2 m/s 724 mmHg 77%
    03:00 +8°C° 0 mm 2 m/s 724 mmHg 77%
    04:00 +8°C° 0 mm 2 m/s 723 mmHg 76%
    05:00 +8°C° 0 mm 2 m/s 723 mmHg 76%
    06:00 +8°C° 0 mm 3 m/s 723 mmHg 75%
    07:00 +9°C° 0 mm 3 m/s 722 mmHg 74%
    08:00 +11°C° 0 mm 3 m/s 722 mmHg 68%
    09:00 +14°C° 0 mm 4 m/s 722 mmHg 61%
    10:00 +16°C° 0 mm 5 m/s 722 mmHg 54%
    11:00 +16°C° 0 mm 5 m/s 722 mmHg 54%
    12:00 +17°C° 0 mm 6 m/s 722 mmHg 54%
    13:00 +17°C° 0 mm 6 m/s 722 mmHg 53%
    14:00 +16°C° 0 mm 6 m/s 722 mmHg 56%
    15:00 +16°C° 0 mm 5 m/s 722 mmHg 59%
    16:00 +15°C° 0 mm 4 m/s 722 mmHg 62%
    17:00 +14°C° 0.1 mm 4 m/s 722 mmHg 67%
    18:00 +12°C° 0.1 mm 3 m/s 723 mmHg 72%
    19:00 +11°C° 0.1 mm 3 m/s 724 mmHg 76%
    20:00 +11°C° 0.2 mm 3 m/s 724 mmHg 79%
    21:00 +10°C° 0.2 mm 2 m/s 725 mmHg 81%
    22:00 +10°C° 0.2 mm 2 m/s 726 mmHg 83%
    23:00 +9°C° 0 mm 2 m/s 726 mmHg 84%

    25 Octombrie, Joi

    Timp Temperatura Precipitaţii Vânt Presiune Umiditate
    00:00 +9°C° 0 mm 2 m/s 726 mmHg 86%
    01:00 +9°C° 0 mm 2 m/s 726 mmHg 87%
    02:00 +9°C° 0 mm 2 m/s 727 mmHg 88%
    03:00 +9°C° 0 mm 2 m/s 727 mmHg 88%
    04:00 +9°C° 0 mm 2 m/s 727 mmHg 88%
    05:00 +10°C° 0 mm 1 m/s 727 mmHg 88%
    06:00 +10°C° 0 mm 1 m/s 727 mmHg 88%
    07:00 +10°C° 0 mm 1 m/s 728 mmHg 87%
    08:00 +10°C° 0 mm 1 m/s 728 mmHg 83%
    09:00 +11°C° 0 mm 1 m/s 728 mmHg 79%
    10:00 +12°C° 0 mm 1 m/s 728 mmHg 75%
    11:00 +13°C° 0 mm 1 m/s 728 mmHg 71%
    12:00 +14°C° 0 mm 1 m/s 727 mmHg 67%
    13:00 +16°C° 0 mm 1 m/s 727 mmHg 63%
    14:00 +15°C° 0 mm 1 m/s 726 mmHg 65%
    15:00 +15°C° 0 mm 1 m/s 726 mmHg 68%
    16:00 +14°C° 0 mm 1 m/s 726 mmHg 70%
    17:00 +13°C° 0 mm 1 m/s 726 mmHg 76%
    18:00 +11°C° 0 mm 1 m/s 725 mmHg 82%
    19:00 +9°C° 0 mm 1 m/s 725 mmHg 87%
    20:00 +9°C° 0 mm 1 m/s 725 mmHg 88%
    21:00 +9°C° 0 mm 1 m/s 725 mmHg 89%
    22:00 +8°C° 0 mm 1 m/s 725 mmHg 91%
    23:00 +8°C° 0 mm 1 m/s 725 mmHg 91%

    26 Octombrie, Vineri

    Timp Temperatura Precipitaţii Vânt Presiune Umiditate
    00:00 +8°C° 0 mm 1 m/s 724 mmHg 92%
    01:00 +8°C° 0 mm 1 m/s 724 mmHg 93%
    02:00 +8°C° 0 mm 1 m/s 724 mmHg 93%
    03:00 +8°C° 0 mm 1 m/s 723 mmHg 93%
    04:00 +7°C° 0 mm 1 m/s 723 mmHg 94%
    05:00 +8°C° 0 mm 1 m/s 722 mmHg 94%
    06:00 +8°C° 0 mm 1 m/s 722 mmHg 94%
    07:00 +8°C° 0 mm 1 m/s 722 mmHg 94%
    08:00 +10°C° 0 mm 1 m/s 722 mmHg 86%
    09:00 +12°C° 0 mm 1 m/s 722 mmHg 79%
    10:00 +15°C° 0 mm 1 m/s 721 mmHg 71%
    11:00 +16°C° 0 mm 1 m/s 721 mmHg 68%
    12:00 +17°C° 0 mm 2 m/s 721 mmHg 64%
    13:00 +18°C° 0 mm 2 m/s 720 mmHg 60%
    14:00 +18°C° 0 mm 2 m/s 720 mmHg 64%
    15:00 +17°C° 0 mm 2 m/s 719 mmHg 68%
    16:00 +17°C° 0 mm 2 m/s 719 mmHg 73%
    17:00 +15°C° 0 mm 1 m/s 719 mmHg 78%
    18:00 +14°C° 0 mm 1 m/s 719 mmHg 84%
    19:00 +12°C° 0 mm 1 m/s 719 mmHg 90%
    20:00 +12°C° 0 mm 1 m/s 719 mmHg 91%
    21:00 +12°C° 0 mm 1 m/s 718 mmHg 92%
    22:00 +11°C° 0 mm 1 m/s 718 mmHg 93%
    23:00 +11°C° 0 mm 1 m/s 718 mmHg 93%

    27 Octombrie, Sâmbătă

    Timp Temperatura Precipitaţii Vânt Presiune Umiditate
    00:00 +11°C° 0 mm 1 m/s 718 mmHg 93%
    01:00 +11°C° 0 mm 1 m/s 718 mmHg 93%
    02:00 +11°C° 0 mm 1 m/s 717 mmHg 93%
    03:00 +12°C° 0 mm 1 m/s 717 mmHg 93%
    04:00 +12°C° 0 mm 2 m/s 717 mmHg 92%
    05:00 +12°C° 0 mm 2 m/s 716 mmHg 93%
    06:00 +12°C° 0 mm 2 m/s 716 mmHg 93%
    07:00 +12°C° 0 mm 2 m/s 716 mmHg 93%
    08:00 +13°C° 0.1 mm 3 m/s 715 mmHg 87%
    09:00 +14°C° 0.1 mm 4 m/s 715 mmHg 82%
    10:00 +17°C° 0.1 mm 4 m/s 715 mmHg 76%
    11:00 +16°C° 0.1 mm 5 m/s 714 mmHg 73%
    12:00 +17°C° 0.1 mm 5 m/s 714 mmHg 69%
    13:00 +17°C° 0.1 mm 6 m/s 713 mmHg 66%
    14:00 +17°C° 0 mm 5 m/s 713 mmHg 67%
    15:00 +16°C° 0 mm 5 m/s 712 mmHg 69%
    16:00 +17°C° 0 mm 4 m/s 712 mmHg 71%
    17:00 +15°C° 0.3 mm 4 m/s 712 mmHg 75%
    18:00 +15°C° 0.3 mm 4 m/s 712 mmHg 79%
    19:00 +14°C° 0.3 mm 4 m/s 712 mmHg 83%
    20:00 +14°C° 0.6 mm 3 m/s 712 mmHg 84%
    21:00 +13°C° 0.6 mm 3 m/s 712 mmHg 84%
    22:00 +12°C° 0.6 mm 3 m/s 713 mmHg 85%
    23:00 +12°C° 1 mm 3 m/s 713 mmHg 86%

    28 Octombrie, Duminică

    Timp Temperatura Precipitaţii Vânt Presiune Umiditate
    00:00 +12°C° 1 mm 2 m/s 712 mmHg 88%
    01:00 +10°C° 1 mm 2 m/s 712 mmHg 90%
    02:00 +9°C° 2.3 mm 2 m/s 713 mmHg 90%
    03:00 +9°C° 2.3 mm 2 m/s 713 mmHg 91%
    04:00 +8°C° 2.3 mm 2 m/s 713 mmHg 91%
    05:00 +7°C° 2 mm 2 m/s 713 mmHg 92%
    06:00 +8°C° 2 mm 1 m/s 714 mmHg 92%
    07:00 +7°C° 2 mm 1 m/s 714 mmHg 93%
    08:00 +8°C° 0.3 mm 1 m/s 714 mmHg 91%
    09:00 +8°C° 0.3 mm 1 m/s 715 mmHg 90%
    10:00 +9°C° 0.3 mm 1 m/s 715 mmHg 89%
    11:00 +9°C° 0 mm 1 m/s 715 mmHg 88%
    12:00 +10°C° 0 mm 1 m/s 716 mmHg 86%
    13:00 +11°C° 0 mm 1 m/s 716 mmHg 85%
    14:00 +10°C° 0.1 mm 1 m/s 716 mmHg 86%
    15:00 +10°C° 0.1 mm 1 m/s 716 mmHg 87%
    16:00 +10°C° 0.1 mm 1 m/s 716 mmHg 89%
    17:00 +10°C° 0.6 mm 1 m/s 716 mmHg 91%
    18:00 +9°C° 0.6 mm 1 m/s 717 mmHg 93%
    19:00 +9°C° 0.6 mm 1 m/s 717 mmHg 95%
    20:00 +8°C° 1.1 mm 1 m/s 718 mmHg 95%
    21:00 +8°C° 1.1 mm 1 m/s 718 mmHg 96%
    22:00 +8°C° 1.1 mm 1 m/s 718 mmHg 96%
    23:00 +8°C° 0.8 mm 1 m/s 718 mmHg 96%
    Arată mai mult